Belize, Belize

10:47 PM CST on February 08, 2016 (GMT -0600)
Philip S W Goldson International

Weather History for MZBZ - April, 2014

Change the Weather History Date:

Wednesday, April 16, 2014

  Actual Average Record
Temperature  
Mean Temperature 79 °F -  
Max Temperature 87 °F 89 °F 89 °F (1997)
Min Temperature 71 °F 75 °F 66 °F (2004)
Cooling Degree Days 14    
Growing Degree Days 29 (Base 50)    
Moisture  
Dew Point 73 °F    
Average Humidity 79    
Maximum Humidity 94    
Minimum Humidity 54    
Precipitation  
Precipitation 0.00 in 0.11 in - ()
Sea Level Pressure  
Sea Level Pressure 29.92 in    
Wind  
Wind Speed 5 mph ()    
Max Wind Speed 12 mph    
Max Gust Speed -    
Visibility 8.0 miles    
Events Thunderstorm    
Averages and records for this station are not official NWS values.
T = Trace of Precipitation, MM = Missing Value Source: Averaged Metar Reports

Daily Weather History Graph

Daily Weather History Graph

Search for Another Location

Airport or City:

Trip Planner

Search our weather history database for the weather conditions in past years. The results will help you decide how hot, cold, wet, or windy it might be!

Date:

Astronomy

Apr. 16, 2014 Rise Set
Actual Time 5:36 AM CST 6:09 PM CST
Civil Twilight 5:14 AM CST 6:31 PM CST
Nautical Twilight 4:48 AM CST 6:57 PM CST
Astronomical Twilight 4:22 AM CST 7:24 PM CST
Moon 7:40 PM CST (4/16) 6:32 AM CST (4/16)
Length of Visible Light 13h 17m
Length of Day
12h 33m
Full, 98% of the Moon is Illuminated
Apr 16
Full
Apr 22
Last Quarter
Apr 29
New
May 6
First Quarter
May 14
Full

Hourly Weather History & Observations

Time (CST) Temp. Heat Index Dew Point Humidity Pressure Visibility Wind Dir Wind Speed Gust Speed Precip Events Conditions
12:00 AM 78 °F - 76 °F 90% 29.90 in 9 mi Calm Calm - -   Partly Cloudy
3:00 AM 73 °F - 70 °F 88% 29.91 in 9 mi NW 11.5 mph - - Thunderstorm Thunderstorm
5:00 AM 73.4 °F - 71.6 °F 94% 29.90 in 6.2 mi Calm Calm - N/A   Mostly Cloudy
6:00 AM 72 °F - 71 °F 94% 29.94 in 12 mi WNW 6.9 mph - -   Partly Cloudy
6:00 AM 71.6 °F - 69.8 °F 94% 29.93 in 6.2 mi WNW 6.9 mph - N/A   Mostly Cloudy
7:00 AM 73.4 °F - 71.6 °F 94% 29.96 in 6.2 mi West 6.9 mph - N/A   Mostly Cloudy
8:00 AM 75.2 °F - 71.6 °F 89% 29.97 in 6.2 mi West 11.5 mph - N/A   Mostly Cloudy
9:00 AM 78 °F - 72 °F 78% 29.98 in 12 mi West 5.8 mph - -   Mostly Cloudy
9:00 AM 77.0 °F - 71.6 °F 83% 29.97 in 6.2 mi West 5.8 mph - N/A   Mostly Cloudy
9:45 AM 75.2 °F - 71.6 °F 89% 29.98 in 6.2 mi WNW 9.2 mph - N/A   Scattered Clouds
10:00 AM 78.8 °F - 73.4 °F 83% 29.98 in 6.2 mi WNW 9.2 mph - N/A   Scattered Clouds
11:00 AM 82.4 °F 89.5 °F 75.2 °F 79% 29.96 in 6.2 mi West 8.1 mph - N/A   Mostly Cloudy
12:00 PM 83 °F - 74 °F 68% 29.94 in 12 mi WNW 8.1 mph - -   Mostly Cloudy
12:00 PM 84.2 °F 90.9 °F 73.4 °F 70% 29.94 in 6.2 mi WNW 8.1 mph - N/A   Mostly Cloudy
1:00 PM 84.2 °F 92.3 °F 75.2 °F 74% 29.91 in 6.2 mi West 9.2 mph - N/A   Mostly Cloudy
2:00 PM 86.0 °F 93.4 °F 73.4 °F 66% 29.88 in 6.2 mi WNW 4.6 mph - N/A   Mostly Cloudy
3:00 PM 87 °F - 72 °F 54% 29.87 in 12 mi NW 5.8 mph - -   Mostly Cloudy
3:00 PM 87.8 °F 95.6 °F 73.4 °F 62% 29.86 in 6.2 mi NW 5.8 mph - N/A   Scattered Clouds
4:00 PM 84.2 °F 90.9 °F 73.4 °F 70% 29.86 in 6.2 mi East 5.8 mph - N/A   Scattered Clouds
5:00 PM 84.2 °F 90.9 °F 73.4 °F 70% 29.87 in 6.2 mi NNE 4.6 mph - N/A   Scattered Clouds
6:00 PM 81 °F - 74 °F 74% 29.89 in 12 mi WNW 3.5 mph - -   Partly Cloudy
6:00 PM 80.6 °F 85.4 °F 73.4 °F 79% 29.89 in 6.2 mi WNW 3.5 mph - N/A   Scattered Clouds
9:00 PM 78 °F - 73 °F 81% 29.95 in 12 mi Calm Calm - -   Mostly Cloudy